Weather History for KVTN - August, 2013

Change the Weather History Date:

Saturday, August 31, 2013

  Actual Average Record
Temperature  
Mean Temperature 80 °F 69 °F  
Max Temperature 97 °F 84 °F 103 °F (1960)
Min Temperature 62 °F 55 °F 37 °F (1965)
Degree Days  
Heating Degree Days 0 2  
Month to date heating degree days 0 14  
Since 1 June heating degree days 57 86  
Since 1 July heating degree days 3 25  
Cooling Degree Days 15 6  
Month to date cooling degree days 316 261  
Year to date cooling degree days 793 736  
Since 1 June cooling degree days 754 702  
Growing Degree Days 30 (Base 50)    
Moisture  
Dew Point 60 °F    
Average Humidity 58    
Maximum Humidity 90    
Minimum Humidity 25    
Precipitation  
Precipitation 0.00 in 0.05 in 1.52 in (1966)
Month to date precipitation 2.01 2.18  
Year to date precipitation 17.64 16.11  
Snow  
Snow 0.00 in 0.00 in 0.00 in ()
Month to date snowfall 0.0 0.0  
Since 1 June snowfall 0.0 0.0  
Since 1 July snowfall 0.0 0.0  
Snow Depth 0.00 in    
Sea Level Pressure  
Sea Level Pressure 29.86 in    
Wind  
Wind Speed 8 mph (NNW)    
Max Wind Speed 24 mph    
Max Gust Speed 31 mph    
Visibility 10 miles    
Events      
T = Trace of Precipitation, MM = Missing Value Source: NWS Daily Summary

Daily Weather History Graph

Daily Weather History Graph

Search for Another Location

Airport or City:

Trip Planner

Search our weather history database for the weather conditions in past years. The results will help you decide how hot, cold, wet, or windy it might be!

Date:

Astronomy

Aug. 31, 2013 Rise Set
Actual Time 7:06 AM CDT 8:17 PM CDT
Civil Twilight 6:36 AM CDT 8:47 PM CDT
Nautical Twilight 6:01 AM CDT 9:21 PM CDT
Astronomical Twilight 5:24 AM CDT 9:58 PM CDT
Moon 2:32 AM CDT (8/31) 5:21 PM CDT (8/31)
Length of Visible Light 14h 10m
Length of Day
13h 11m
Waning Crescent, 21% of the Moon is Illuminated
Aug 31
Waning Crescent
Sep 5
New
Sep 12
First Quarter
Sep 19
Full
Sep 26
Last Quarter

Hourly Weather History & Observations

Time (CDT) Temp. Heat Index Dew Point Humidity Pressure Visibility Wind Dir Wind Speed Gust Speed Precip Events Conditions
12:52 AM 71.1 °F - 61.0 °F 70% 29.88 in 10.0 mi SSW 11.5 mph 23.0 mph N/A   Clear
1:52 AM 70.0 °F - 60.1 °F 71% 29.87 in 10.0 mi WSW 8.1 mph - N/A   Clear
2:52 AM 66.9 °F - 59.0 °F 76% 29.86 in 10.0 mi West 6.9 mph - N/A   Clear
3:52 AM 69.1 °F - 59.0 °F 70% 29.84 in 10.0 mi SW 12.7 mph - N/A   Clear
4:52 AM 66.9 °F - 59.0 °F 76% 29.84 in 10.0 mi West 8.1 mph - N/A   Clear
5:52 AM 64.0 °F - 59.0 °F 84% 29.84 in 10.0 mi West 4.6 mph - N/A   Clear
6:52 AM 62.1 °F - 59.0 °F 90% 29.86 in 10.0 mi SW 6.9 mph - N/A   Clear
7:52 AM 64.9 °F - 61.0 °F 87% 29.85 in 10.0 mi Calm Calm - N/A   Clear
8:52 AM 71.1 °F - 62.1 °F 73% 29.86 in 10.0 mi ENE 5.8 mph - N/A   Clear
9:52 AM 73.9 °F - 63.0 °F 68% 29.87 in 10.0 mi ENE 5.8 mph - N/A   Clear
10:52 AM 78.1 °F - 63.0 °F 60% 29.88 in 10.0 mi East 3.5 mph - N/A   Clear
11:52 AM 81.0 °F 81.9 °F 62.1 °F 52% 29.86 in 10.0 mi Calm Calm - N/A   Clear
12:52 PM 86.0 °F 86.8 °F 63.0 °F 46% 29.85 in 10.0 mi WSW 4.6 mph - N/A   Clear
1:52 PM 90.0 °F 90.3 °F 62.1 °F 39% 29.82 in 10.0 mi Calm Calm - N/A   Clear
2:52 PM 93.9 °F 91.7 °F 54.0 °F 26% 29.81 in 10.0 mi Variable 5.8 mph - N/A   Clear
3:52 PM 96.1 °F 94.5 °F 55.9 °F 26% 29.79 in 10.0 mi Variable 4.6 mph - N/A   Clear
4:52 PM 96.1 °F 94.5 °F 55.9 °F 26% 29.79 in 10.0 mi North 5.8 mph - N/A   Clear
5:52 PM 93.0 °F 93.8 °F 62.1 °F 36% 29.80 in 10.0 mi NNW 12.7 mph 18.4 mph N/A   Clear
6:52 PM 89.1 °F 90.0 °F 63.0 °F 42% 29.83 in 10.0 mi North 21.9 mph 28.8 mph N/A   Clear
7:52 PM 82.9 °F 83.7 °F 62.1 °F 49% 29.87 in 10.0 mi North 17.3 mph 29.9 mph N/A   Clear
8:52 PM 79.0 °F - 60.1 °F 52% 29.90 in 10.0 mi North 15.0 mph 20.7 mph N/A   Partly Cloudy
9:52 PM 75.9 °F - 53.1 °F 45% 29.92 in 10.0 mi North 10.4 mph - N/A   Clear
10:52 PM 73.9 °F - 54.0 °F 50% 29.94 in 10.0 mi North 8.1 mph - N/A   Clear
11:52 PM 72.0 °F - 52.0 °F 49% 29.96 in 10.0 mi NNE 10.4 mph - N/A   Clear